Regional Weather Roundup
Issued by NWS Tiyan, Guam

Home | Current Version | Previous Version | Text Only | Print | Product List | Glossary On
Versions: 1 2 3 4 5 6 7 8 9 10 11 12 13 14 15 16 17 18 19 20 21 22 23 24 25 26 27 28 29 30 31 32 33 34 35 36 37 38 39 40 41 42 43 44 45 46 47 48 49 50
000
ASGM40 PGUM 210312
RWRGUM
WEATHER ROUNDUP FOR THE MARIANAS
NATIONAL WEATHER SERVICE TIYAN GU
100 PM CHST FRI NOV 21 2014

GUZ001>004-210400-
MARIANA ISLANDS-

CITY           SKY/WX    TMP DP  RH WIND       PRES   REMARKS
GUAM AIRPORT   PTSUNNY   88  77  70 E10       29.87F HX 100
ANDERSEN AFB   PTSUNNY   84  75  74 NE18      29.88F HX  92
ROTA AIRPORT   MOSUNNY   84  75  74 NE13      29.89F HX  92
TINIAN AP      MOSUNNY   86  75  70 E17       29.87F HX  95
SAIPAN AP      PTSUNNY   86  75  70 E18       29.88F HX  95

$$



USA.gov is the U.S. government's official web portal to all federal, state and local government web resources and services.